Flag for U.S.A. Weather past 2 weeks in Hialeah, Florida, U.S.A.

Now
77 °F

Broken clouds.


Feels Like: 79 °F
Forecast: 75 / 86 °F
Wind: 9 mph from East

Location: Opa Locka Airport

Current Time: May 28, 2015 at 9:34:58 PM

Latest Report: May 28, 2015 at 8:53 PM


Visibility: 10 mi

Pressure: 30.07 "Hg

Humidity: 69%

Dew point: 66 °F

Location of HialeahLocation

Historic Weather in Hialeah — Graph

°F

Hialeah temperature yesterday

Maximum temperature yesterday: 86 °F (at 3:53 PM)
Minimum temperature yesterday: 76 °F (at 8:53 PM)
Average temperature yesterday: 81 °F

Past Weeks' High & Low Weather Summary

 TemperatureHumidityPressure
High93 °F (May 21, 1:53 PM)94% (May 20, 4:53 AM)30.21 "Hg (May 20, 4:53 AM)
Low73 °F (May 19, 6:53 AM)42% (May 20, 2:53 PM)29.95 "Hg (May 20, 6:53 PM)
Average81 °F69%30.11 "Hg
* Reported May 13 7:53 PM — May 28 7:53 PM, Hialeah, Weather by CustomWeather, © 2015

Note: Actual official high and low records may vary slightly from our data, if they occured in-between our weather recording intervals... More about our weather records

Advertising

Hialeah weather history for previous 24 hours

 ConditionsComfort  
Time TempWeatherWind HumidityBarometerVisibility
7:53 PM
Thu, May 28
79 °FCloudy.13 mph65%30.06 "Hg10 mi
6:53 PM78 °FLight rain. Mostly cloudy.12 mph74%30.06 "Hg10 mi
5:53 PM82 °FBroken clouds.15 mph58%30.06 "Hg10 mi
4:53 PM83 °FBroken clouds.12 mph59%30.06 "Hg10 mi
3:53 PM81 °FOvercast.14 mph60%30.07 "Hg10 mi
2:53 PM85 °FPartly sunny.13 mph51%30.08 "Hg10 mi
1:53 PM85 °FScattered clouds.14 mph48%30.09 "Hg10 mi
12:53 PM83 °FBroken clouds.16 mph57%30.10 "Hg10 mi
11:53 AM82 °FBroken clouds.16 mph56%30.11 "Hg10 mi
10:53 AM83 °FPassing clouds.18 mph53%30.11 "Hg10 mi
9:53 AM78 °FLight rain. Mostly cloudy.15 mph69%30.10 "Hg10 mi
8:53 AM79 °FPartly sunny.14 mph65%30.09 "Hg10 mi
7:53 AM78 °FPassing clouds.13 mph64%30.08 "Hg10 mi
6:53 AM73 °FClear.8 mph69%30.07 "Hg10 mi
5:53 AM74 °FClear.7 mph62%30.07 "Hg10 mi
4:53 AM75 °FClear.8 mph64%30.05 "Hg10 mi
3:53 AM76 °FClear.8 mph67%30.05 "Hg10 mi
2:53 AM76 °FPassing clouds.7 mph67%30.06 "Hg10 mi
1:53 AM76 °FPassing clouds.8 mph62%30.09 "Hg10 mi
12:53 AM78 °FPassing clouds.13 mph62%30.11 "Hg10 mi
11:53 PM
Wed, May 27
78 °FOvercast.14 mph64%30.11 "Hg10 mi
10:53 PM78 °FPassing clouds.15 mph69%30.11 "Hg10 mi
9:53 PM76 °FPassing clouds.7 mph91%30.11 "Hg10 mi
Weather by CustomWeather, © 2015

See weather overviewHow to use our weather pages